Index of /20260430/WXO-DD/model_gdps/15km/12/237
Name Last modified Size Description
Parent Directory -
20260430T12Z_MSC_GDPS_AirTemp_AGL-120m_LatLon0.15_PT237H.grib2 2026-04-30 16:36 908K
20260430T12Z_MSC_GDPS_AirTemp_AGL-2m_LatLon0.15_PT237H.grib2 2026-04-30 16:36 1.0M
20260430T12Z_MSC_GDPS_AirTemp_AGL-40m_LatLon0.15_PT237H.grib2 2026-04-30 16:36 810K
20260430T12Z_MSC_GDPS_AirTemp_AGL-80m_LatLon0.15_PT237H.grib2 2026-04-30 16:36 916K
20260430T12Z_MSC_GDPS_AirTemp_IsbL-0001_LatLon0.15_PT237H.grib2 2026-04-30 16:36 668K
20260430T12Z_MSC_GDPS_AirTemp_IsbL-0005_LatLon0.15_PT237H.grib2 2026-04-30 16:36 532K
20260430T12Z_MSC_GDPS_AirTemp_IsbL-0500_LatLon0.15_PT237H.grib2 2026-04-30 16:36 764K
20260430T12Z_MSC_GDPS_AirTemp_IsbL-0700_LatLon0.15_PT237H.grib2 2026-04-30 16:36 951K
20260430T12Z_MSC_GDPS_AirTemp_IsbL-0850_LatLon0.15_PT237H.grib2 2026-04-30 16:36 1.1M
20260430T12Z_MSC_GDPS_AirTemp_IsbL-0925_LatLon0.15_PT237H.grib2 2026-04-30 16:36 1.1M
20260430T12Z_MSC_GDPS_AirTemp_IsbL-1000_LatLon0.15_PT237H.grib2 2026-04-30 16:36 1.1M
20260430T12Z_MSC_GDPS_Albedo_Sfc_LatLon0.15_PT237H.grib2 2026-04-30 16:36 241K
20260430T12Z_MSC_GDPS_ConvectivePrecip-Accum_Sfc_LatLon0.15_PT237H.grib2 2026-04-30 16:36 3.8M
20260430T12Z_MSC_GDPS_DewPointDepression_AGL-2m_LatLon0.15_PT237H.grib2 2026-04-30 16:36 761K
20260430T12Z_MSC_GDPS_DewPointDepression_IsbL-0500_LatLon0.15_PT237H.grib2 2026-04-30 16:36 1.0M
20260430T12Z_MSC_GDPS_DewPointDepression_IsbL-0700_LatLon0.15_PT237H.grib2 2026-04-30 16:36 1.1M
20260430T12Z_MSC_GDPS_DewPointDepression_IsbL-0850_LatLon0.15_PT237H.grib2 2026-04-30 16:36 1.2M
20260430T12Z_MSC_GDPS_DewPointDepression_IsbL-0925_LatLon0.15_PT237H.grib2 2026-04-30 16:36 1.0M
20260430T12Z_MSC_GDPS_DewPointDepression_IsbL-1000_LatLon0.15_PT237H.grib2 2026-04-30 16:36 968K
20260430T12Z_MSC_GDPS_DewPoint_AGL-2m_LatLon0.15_PT237H.grib2 2026-04-30 16:36 611K
20260430T12Z_MSC_GDPS_DownwardLongwaveRadiationFlux-Accum_Sfc_LatLon0.15_PT237H.grib2 2026-04-30 16:36 744K
20260430T12Z_MSC_GDPS_DownwardShortwaveRadiationFlux-Accum_Sfc_LatLon0.15_PT237H.grib2 2026-04-30 16:36 917K
20260430T12Z_MSC_GDPS_FreezingRain-Accum_Sfc_LatLon0.15_PT237H.grib2 2026-04-30 16:36 468K
20260430T12Z_MSC_GDPS_GeopotentialHeight_IsbL-0001_LatLon0.15_PT237H.grib2 2026-04-30 16:36 434K
20260430T12Z_MSC_GDPS_GeopotentialHeight_IsbL-0005_LatLon0.15_PT237H.grib2 2026-04-30 16:36 495K
20260430T12Z_MSC_GDPS_GeopotentialHeight_IsbL-0500_LatLon0.15_PT237H.grib2 2026-04-30 16:36 598K
20260430T12Z_MSC_GDPS_GeopotentialHeight_IsbL-0700_LatLon0.15_PT237H.grib2 2026-04-30 16:36 690K
20260430T12Z_MSC_GDPS_GeopotentialHeight_IsbL-0850_LatLon0.15_PT237H.grib2 2026-04-30 16:36 714K
20260430T12Z_MSC_GDPS_GeopotentialHeight_IsbL-0925_LatLon0.15_PT237H.grib2 2026-04-30 16:36 731K
20260430T12Z_MSC_GDPS_GeopotentialHeight_IsbL-1000_LatLon0.15_PT237H.grib2 2026-04-30 16:36 789K
20260430T12Z_MSC_GDPS_IcePellets-Accum_Sfc_LatLon0.15_PT237H.grib2 2026-04-30 16:36 205K
20260430T12Z_MSC_GDPS_LatentHeatNetFlux_Sfc_LatLon0.15_PT237H.grib2 2026-04-30 16:36 559K
20260430T12Z_MSC_GDPS_NetLongwaveRadiationFlux-Accum_Sfc_LatLon0.15_PT237H.grib2 2026-04-30 16:36 970K
20260430T12Z_MSC_GDPS_NetShortwaveRadiationFlux-Accum_Sfc_LatLon0.15_PT237H.grib2 2026-04-30 16:36 915K
20260430T12Z_MSC_GDPS_O3MixingRatio_Sfc_LatLon0.15_PT237H.grib2 2026-04-30 16:46 2.2M
20260430T12Z_MSC_GDPS_O3_EAtm_LatLon0.15_PT237H.grib2 2026-04-30 16:46 2.4M
20260430T12Z_MSC_GDPS_PlanetaryBoundaryLayerHeight_Sfc_LatLon0.15_PT237H.grib2 2026-04-30 16:36 2.5M
20260430T12Z_MSC_GDPS_Precip-Accum_Sfc_LatLon0.15_PT237H.grib2 2026-04-30 16:36 5.5M
20260430T12Z_MSC_GDPS_PrecipRate_Sfc_LatLon0.15_PT237H.grib2 2026-04-30 16:36 3.1M
20260430T12Z_MSC_GDPS_Pressure_MSL_LatLon0.15_PT237H.grib2 2026-04-30 16:36 823K
20260430T12Z_MSC_GDPS_Pressure_Sfc_LatLon0.15_PT237H.grib2 2026-04-30 16:36 1.1M
20260430T12Z_MSC_GDPS_RadiativeTemp_Sfc_LatLon0.15_PT237H.grib2 2026-04-30 16:36 506K
20260430T12Z_MSC_GDPS_Rain-Accum_Sfc_LatLon0.15_PT237H.grib2 2026-04-30 16:36 4.3M
20260430T12Z_MSC_GDPS_RelativeHumidity_AGL-2m_LatLon0.15_PT237H.grib2 2026-04-30 16:36 1.0M
20260430T12Z_MSC_GDPS_Runoff-Accum_Sfc_LatLon0.15_PT237H.grib2 2026-04-30 16:36 142K
20260430T12Z_MSC_GDPS_SensibleHeatNetFlux_Sfc_LatLon0.15_PT237H.grib2 2026-04-30 16:36 493K
20260430T12Z_MSC_GDPS_Snow-Accum_Sfc_LatLon0.15_PT237H.grib2 2026-04-30 16:36 2.2M
20260430T12Z_MSC_GDPS_SnowDepth_Sfc_LatLon0.15_PT237H.grib2 2026-04-30 16:36 1.7M
20260430T12Z_MSC_GDPS_SoilTemp_DBS-0to10cm_LatLon0.15_PT237H.grib2 2026-04-30 16:36 515K
20260430T12Z_MSC_GDPS_SoilTemp_Sfc_LatLon0.15_PT237H.grib2 2026-04-30 16:36 586K
20260430T12Z_MSC_GDPS_SoilVolumetricWaterContent_DBS-0to10cm_LatLon0.15_PT237H.grib2 2026-04-30 16:36 597K
20260430T12Z_MSC_GDPS_SoilVolumetricWaterContent_DBS-0to1cm_LatLon0.15_PT237H.grib2 2026-04-30 16:36 647K
20260430T12Z_MSC_GDPS_SpecificHumidity_AGL-120m_LatLon0.15_PT237H.grib2 2026-04-30 16:36 1.1M
20260430T12Z_MSC_GDPS_SpecificHumidity_AGL-2m_LatLon0.15_PT237H.grib2 2026-04-30 16:36 1.2M
20260430T12Z_MSC_GDPS_SpecificHumidity_AGL-40m_LatLon0.15_PT237H.grib2 2026-04-30 16:36 1.1M
20260430T12Z_MSC_GDPS_SpecificHumidity_AGL-80m_LatLon0.15_PT237H.grib2 2026-04-30 16:36 1.1M
20260430T12Z_MSC_GDPS_SpecificHumidity_IsbL-0001_LatLon0.15_PT237H.grib2 2026-04-30 16:36 1.1M
20260430T12Z_MSC_GDPS_SpecificHumidity_IsbL-0005_LatLon0.15_PT237H.grib2 2026-04-30 16:36 1.0M
20260430T12Z_MSC_GDPS_SpecificHumidity_IsbL-0500_LatLon0.15_PT237H.grib2 2026-04-30 16:36 1.4M
20260430T12Z_MSC_GDPS_SpecificHumidity_IsbL-0700_LatLon0.15_PT237H.grib2 2026-04-30 16:36 1.6M
20260430T12Z_MSC_GDPS_SpecificHumidity_IsbL-0850_LatLon0.15_PT237H.grib2 2026-04-30 16:36 2.0M
20260430T12Z_MSC_GDPS_SpecificHumidity_IsbL-0925_LatLon0.15_PT237H.grib2 2026-04-30 16:36 1.6M
20260430T12Z_MSC_GDPS_SpecificHumidity_IsbL-1000_LatLon0.15_PT237H.grib2 2026-04-30 16:36 1.5M
20260430T12Z_MSC_GDPS_SpecificHumidity_Sfc_LatLon0.15_PT237H.grib2 2026-04-30 16:36 606K
20260430T12Z_MSC_GDPS_Thickness_IsbL-0850to0700_LatLon0.15_PT237H.grib2 2026-04-30 16:36 469K
20260430T12Z_MSC_GDPS_Thickness_IsbL-1000to0500_LatLon0.15_PT237H.grib2 2026-04-30 16:36 373K
20260430T12Z_MSC_GDPS_Thickness_IsbL-1000to0850_LatLon0.15_PT237H.grib2 2026-04-30 16:36 493K
20260430T12Z_MSC_GDPS_TotalCloudCover_Sfc_LatLon0.15_PT237H.grib2 2026-04-30 16:36 850K
20260430T12Z_MSC_GDPS_UVIndex-ClearSky_Sfc_LatLon0.15_PT237H.grib2 2026-04-30 16:46 1.1M
20260430T12Z_MSC_GDPS_UVIndex_Sfc_LatLon0.15_PT237H.grib2 2026-04-30 16:46 1.5M
20260430T12Z_MSC_GDPS_UpwardLongwaveRadiationFlux_NTAtm_LatLon0.15_PT237H.grib2 2026-04-30 16:36 840K
20260430T12Z_MSC_GDPS_VerticalVelocity_IsbL-0500_LatLon0.15_PT237H.grib2 2026-04-30 16:36 1.0M
20260430T12Z_MSC_GDPS_VerticalVelocity_IsbL-0700_LatLon0.15_PT237H.grib2 2026-04-30 16:36 1.1M
20260430T12Z_MSC_GDPS_VerticalVelocity_IsbL-0850_LatLon0.15_PT237H.grib2 2026-04-30 16:36 1.3M
20260430T12Z_MSC_GDPS_WindDir_AGL-10m_LatLon0.15_PT237H.grib2 2026-04-30 16:36 1.3M
20260430T12Z_MSC_GDPS_WindDir_AGL-120m_LatLon0.15_PT237H.grib2 2026-04-30 16:36 1.3M
20260430T12Z_MSC_GDPS_WindDir_AGL-40m_LatLon0.15_PT237H.grib2 2026-04-30 16:36 1.4M
20260430T12Z_MSC_GDPS_WindDir_AGL-80m_LatLon0.15_PT237H.grib2 2026-04-30 16:36 1.4M
20260430T12Z_MSC_GDPS_WindDir_IsbL-0001_LatLon0.15_PT237H.grib2 2026-04-30 16:36 659K
20260430T12Z_MSC_GDPS_WindDir_IsbL-0005_LatLon0.15_PT237H.grib2 2026-04-30 16:36 819K
20260430T12Z_MSC_GDPS_WindDir_IsbL-0500_LatLon0.15_PT237H.grib2 2026-04-30 16:36 1.4M
20260430T12Z_MSC_GDPS_WindDir_IsbL-0700_LatLon0.15_PT237H.grib2 2026-04-30 16:36 1.6M
20260430T12Z_MSC_GDPS_WindDir_IsbL-0850_LatLon0.15_PT237H.grib2 2026-04-30 16:36 1.9M
20260430T12Z_MSC_GDPS_WindDir_IsbL-0925_LatLon0.15_PT237H.grib2 2026-04-30 16:36 2.0M
20260430T12Z_MSC_GDPS_WindDir_IsbL-1000_LatLon0.15_PT237H.grib2 2026-04-30 16:36 2.1M
20260430T12Z_MSC_GDPS_WindGust-Max_AGL-10m_LatLon0.15_PT237H.grib2 2026-04-30 16:36 2.2M
20260430T12Z_MSC_GDPS_WindGust-Min_AGL-10m_LatLon0.15_PT237H.grib2 2026-04-30 16:36 2.2M
20260430T12Z_MSC_GDPS_WindGust_AGL-10m_LatLon0.15_PT237H.grib2 2026-04-30 16:36 2.2M
20260430T12Z_MSC_GDPS_WindSpeed_AGL-10m_LatLon0.15_PT237H.grib2 2026-04-30 16:36 1.1M
20260430T12Z_MSC_GDPS_WindSpeed_AGL-120m_LatLon0.15_PT237H.grib2 2026-04-30 16:36 1.2M
20260430T12Z_MSC_GDPS_WindSpeed_AGL-40m_LatLon0.15_PT237H.grib2 2026-04-30 16:36 1.2M
20260430T12Z_MSC_GDPS_WindSpeed_AGL-80m_LatLon0.15_PT237H.grib2 2026-04-30 16:36 1.2M
20260430T12Z_MSC_GDPS_WindSpeed_IsbL-0001_LatLon0.15_PT237H.grib2 2026-04-30 16:36 650K
20260430T12Z_MSC_GDPS_WindSpeed_IsbL-0005_LatLon0.15_PT237H.grib2 2026-04-30 16:36 694K
20260430T12Z_MSC_GDPS_WindSpeed_IsbL-0500_LatLon0.15_PT237H.grib2 2026-04-30 16:36 1.1M
20260430T12Z_MSC_GDPS_WindSpeed_IsbL-0700_LatLon0.15_PT237H.grib2 2026-04-30 16:36 1.5M
20260430T12Z_MSC_GDPS_WindSpeed_IsbL-0850_LatLon0.15_PT237H.grib2 2026-04-30 16:36 1.7M
20260430T12Z_MSC_GDPS_WindSpeed_IsbL-0925_LatLon0.15_PT237H.grib2 2026-04-30 16:36 1.8M
20260430T12Z_MSC_GDPS_WindSpeed_IsbL-1000_LatLon0.15_PT237H.grib2 2026-04-30 16:36 1.8M
20260430T12Z_MSC_GDPS_WindU_AGL-10m_LatLon0.15_PT237H.grib2 2026-04-30 16:36 1.6M
20260430T12Z_MSC_GDPS_WindU_AGL-120m_LatLon0.15_PT237H.grib2 2026-04-30 16:36 965K
20260430T12Z_MSC_GDPS_WindU_AGL-40m_LatLon0.15_PT237H.grib2 2026-04-30 16:36 962K
20260430T12Z_MSC_GDPS_WindU_AGL-80m_LatLon0.15_PT237H.grib2 2026-04-30 16:36 966K
20260430T12Z_MSC_GDPS_WindU_IsbL-0001_LatLon0.15_PT237H.grib2 2026-04-30 16:36 505K
20260430T12Z_MSC_GDPS_WindU_IsbL-0005_LatLon0.15_PT237H.grib2 2026-04-30 16:36 692K
20260430T12Z_MSC_GDPS_WindU_IsbL-0500_LatLon0.15_PT237H.grib2 2026-04-30 16:36 1.1M
20260430T12Z_MSC_GDPS_WindU_IsbL-0700_LatLon0.15_PT237H.grib2 2026-04-30 16:36 1.2M
20260430T12Z_MSC_GDPS_WindU_IsbL-0850_LatLon0.15_PT237H.grib2 2026-04-30 16:36 1.4M
20260430T12Z_MSC_GDPS_WindU_IsbL-0925_LatLon0.15_PT237H.grib2 2026-04-30 16:36 1.5M
20260430T12Z_MSC_GDPS_WindU_IsbL-1000_LatLon0.15_PT237H.grib2 2026-04-30 16:36 1.7M
20260430T12Z_MSC_GDPS_WindV_AGL-10m_LatLon0.15_PT237H.grib2 2026-04-30 16:36 1.3M
20260430T12Z_MSC_GDPS_WindV_AGL-120m_LatLon0.15_PT237H.grib2 2026-04-30 16:36 966K
20260430T12Z_MSC_GDPS_WindV_AGL-40m_LatLon0.15_PT237H.grib2 2026-04-30 16:36 963K
20260430T12Z_MSC_GDPS_WindV_AGL-80m_LatLon0.15_PT237H.grib2 2026-04-30 16:36 967K
20260430T12Z_MSC_GDPS_WindV_IsbL-0001_LatLon0.15_PT237H.grib2 2026-04-30 16:36 687K
20260430T12Z_MSC_GDPS_WindV_IsbL-0005_LatLon0.15_PT237H.grib2 2026-04-30 16:36 770K
20260430T12Z_MSC_GDPS_WindV_IsbL-0500_LatLon0.15_PT237H.grib2 2026-04-30 16:36 1.1M
20260430T12Z_MSC_GDPS_WindV_IsbL-0700_LatLon0.15_PT237H.grib2 2026-04-30 16:36 1.2M
20260430T12Z_MSC_GDPS_WindV_IsbL-0850_LatLon0.15_PT237H.grib2 2026-04-30 16:36 1.4M
20260430T12Z_MSC_GDPS_WindV_IsbL-0925_LatLon0.15_PT237H.grib2 2026-04-30 16:36 1.4M
20260430T12Z_MSC_GDPS_WindV_IsbL-1000_LatLon0.15_PT237H.grib2 2026-04-30 16:36 1.4M